Weather History for KNHK - October, 2013

Change the Weather History Date:

Saturday, October 26, 2013

  Actual Average Record
Temperature  
Mean Temperature 44 °F -  
Max Temperature 59 °F 64 °F 82 °F (1978)
Min Temperature 30 °F 47 °F 30 °F (2013)
Degree Days  
Heating Degree Days 22    
Moisture  
Dew Point 29 °F    
Average Humidity 56    
Maximum Humidity 92    
Minimum Humidity 28    
Precipitation  
Precipitation 0.00 in - - ()
Sea Level Pressure  
Sea Level Pressure 30.17 in    
Wind  
Wind Speed 7 mph (SW)    
Max Wind Speed 16 mph    
Max Gust Speed 24 mph    
Visibility 10 miles    
Events Rain    
Averages and records for this station are not official NWS values.
T = Trace of Precipitation, MM = Missing Value Source: NWS Daily Summary

Daily Weather History Graph

Daily Weather History Graph

Search for Another Location

Airport or City:

Trip Planner

Search our weather history database for the weather conditions in past years. The results will help you decide how hot, cold, wet, or windy it might be!

Date:

Astronomy

Oct. 26, 2013 Rise Set
Actual Time 7:25 AM EDT 6:12 PM EDT
Civil Twilight 6:58 AM EDT 6:39 PM EDT
Nautical Twilight 6:27 AM EDT 7:10 PM EDT
Astronomical Twilight 5:56 AM EDT 7:41 PM EDT
Moon No Moon Rise 1:39 PM EDT (10/26)
Length of Visible Light 11h 41m
Length of Day
10h 47m
Waning Gibbous, 53% of the Moon is Illuminated
Oct 26
Waning Gibbous
Oct 26
Last Quarter
Nov 3
New
Nov 10
First Quarter
Nov 17
Full

Hourly Weather History & Observations

Time (EDT) Temp. Windchill Dew Point Humidity Pressure Visibility Wind Dir Wind Speed Gust Speed Precip Events Conditions
12:52 AM 37.0 °F 32.4 °F 30.9 °F 79% 30.31 in 10.0 mi WSW 5.8 mph - N/A   Clear
1:52 AM 36.0 °F 30.3 °F 30.0 °F 79% 30.31 in 10.0 mi West 6.9 mph - N/A   Clear
2:52 AM 36.0 °F 31.1 °F 30.0 °F 79% 30.30 in 10.0 mi WSW 5.8 mph - N/A   Clear
3:52 AM 35.1 °F 30.1 °F 28.9 °F 78% 30.30 in 10.0 mi WSW 5.8 mph - N/A   Clear
4:52 AM 34.0 °F 31.0 °F 28.0 °F 79% 30.29 in 10.0 mi WSW 3.5 mph - N/A   Clear
5:52 AM 33.1 °F 28.7 °F 28.0 °F 82% 30.28 in 10.0 mi SW 4.6 mph - N/A   Clear
6:09 AM 33.8 °F 29.6 °F 28.4 °F 81% 30.28 in 10.0 mi SW 4.6 mph - N/A   Clear
6:52 AM 30.0 °F 26.5 °F 27.0 °F 88% 30.28 in 10.0 mi SW 3.5 mph - N/A   Partly Cloudy
7:52 AM 30.9 °F 27.5 °F 28.9 °F 92% 30.27 in 10.0 mi WSW 3.5 mph - N/A   Partly Cloudy
8:52 AM 43.0 °F 41.3 °F 37.0 °F 80% 30.27 in 10.0 mi SSW 3.5 mph - N/A   Partly Cloudy
9:52 AM 50.0 °F - 37.9 °F 63% 30.26 in 10.0 mi Variable 4.6 mph - N/A   Partly Cloudy
10:52 AM 53.1 °F - 30.9 °F 43% 30.24 in 10.0 mi SSW 10.4 mph 17.3 mph N/A   Partly Cloudy
11:52 AM 55.9 °F - 28.9 °F 36% 30.21 in 10.0 mi SW 12.7 mph 21.9 mph N/A   Partly Cloudy
12:52 PM 57.0 °F - 26.1 °F 30% 30.17 in 10.0 mi SSW 11.5 mph 20.7 mph N/A   Partly Cloudy
1:52 PM 57.9 °F - 26.1 °F 30% 30.13 in 10.0 mi SW 16.1 mph 24.2 mph 0.00 in   Partly Cloudy
2:52 PM 57.9 °F - 25.0 °F 28% 30.09 in 10.0 mi WSW 15.0 mph 24.2 mph N/A   Partly Cloudy
3:52 PM 57.9 °F - 25.0 °F 28% 30.07 in 10.0 mi SW 11.5 mph 21.9 mph N/A   Clear
4:52 PM 57.0 °F - 25.0 °F 29% 30.05 in 10.0 mi SSW 10.4 mph 16.1 mph N/A   Clear
5:52 PM 54.0 °F - 26.1 °F 34% 30.03 in 10.0 mi SSW 6.9 mph - N/A   Clear
6:52 PM 50.0 °F - 27.0 °F 41% 30.03 in 10.0 mi SSW 4.6 mph - 0.00 in Rain Light Rain
7:52 PM 50.0 °F - 28.9 °F 44% 30.01 in 10.0 mi SSW 3.5 mph - 0.00 in   Clear
8:52 PM 50.0 °F - 28.9 °F 44% 30.01 in 10.0 mi SW 6.9 mph - N/A   Clear
9:52 PM 52.0 °F - 30.0 °F 43% 30.00 in 10.0 mi SW 11.5 mph - N/A   Overcast
10:52 PM 53.1 °F - 30.9 °F 43% 29.99 in 10.0 mi SW 11.5 mph 19.6 mph N/A   Overcast
11:52 PM 52.0 °F - 30.9 °F 45% 29.97 in 10.0 mi SW 10.4 mph - N/A   Scattered Clouds